Historique des stations

Station météo de Tour-en-Sologne

Altitude de la station : 97 m







Données météorologiques pour le 16/09/2021
Date
Heure
Températures Humidité Point de rosée Vitesse
du vent
Direction Rafales Windchill Pression Pluviométrie
Cumul
Date
Heure
Températures Humidité Point de rosée Vitesse
du vent
Direction Rafales Windchill Pression Pluviométrie
Cumul
16/09/2021 12:5718.0 °C92 %16.7 °C2 km/hNNE18 km/h17.8 1019 hPa2.6 mm
16/09/2021 12:4117.7 °C95 %16.7 °C5 km/hNNO18 km/h17.8 1019 hPa2.6 mm
16/09/2021 12:2617.3 °C95 %16.7 °C5 km/hENE18 km/h17.2 1019 hPa2.6 mm
16/09/2021 12:1117.1 °C96 %16.7 °C2 km/hNNO18 km/h17.2 1019 hPa2.6 mm
16/09/2021 11:5516.9 °C95 %16.1 °C3 km/hNO18 km/h17.2 1019 hPa2.6 mm
16/09/2021 11:4016.8 °C95 %16.1 °C6 km/hNNE18 km/h16.7 1019 hPa2.6 mm
16/09/2021 11:2416.7 °C96 %16.1 °C2 km/hN18 km/h16.7 1019 hPa2.6 mm
16/09/2021 11:0916.6 °C96 %16.1 °C6 km/hNE18 km/h16.7 1019 hPa2.6 mm
16/09/2021 10:5416.6 °C96 %16.1 °C5 km/hN18 km/h16.7 1019 hPa2.6 mm
16/09/2021 10:3816.4 °C96 %16.1 °C6 km/hNNO18 km/h16.7 1019 hPa2.6 mm
16/09/2021 10:2316.2 °C99 %16.1 °C5 km/hNNE18 km/h16.1 1019 hPa2.4 mm
16/09/2021 10:0715.6 °C98 %15.6 °C3 km/hNNE18 km/h15.6 1019 hPa2.4 mm
16/09/2021 09:5115.4 °C98 %15.0 °C-NE18 km/h15.6 1019 hPa2.4 mm
16/09/2021 09:3615.3 °C99 %15.0 °C2 km/hNNE18 km/h15.6 1018 hPa2.4 mm
16/09/2021 09:2115.1 °C99 %15.0 °C3 km/hNE18 km/h15.0 1018 hPa2.4 mm
16/09/2021 09:0514.9 °C99 %15.0 °C2 km/hNE18 km/h15.0 1018 hPa2.4 mm
16/09/2021 08:5014.9 °C99 %15.0 °C8 km/hNNE18 km/h15.0 1018 hPa2.4 mm
16/09/2021 08:3515.0 °C99 %15.0 °C3 km/hNNE18 km/h15.0 1018 hPa2.4 mm
16/09/2021 08:1915.0 °C99 %15.0 °C-N18 km/h15.0 1018 hPa2.4 mm
16/09/2021 08:0415.0 °C99 %15.0 °C3 km/hN18 km/h15.0 1018 hPa2.4 mm
16/09/2021 07:4915.1 °C99 %15.0 °C2 km/hNNE18 km/h15.0 1018 hPa2.4 mm
16/09/2021 07:3315.1 °C99 %15.0 °C-NNO18 km/h15.0 1018 hPa2.4 mm
16/09/2021 07:1815.2 °C99 %15.0 °C8 km/hNO18 km/h15.0 1017 hPa2.4 mm
16/09/2021 07:0215.3 °C98 %15.0 °C2 km/hNNE18 km/h15.6 1017 hPa2.4 mm
16/09/2021 06:5315.3 °C99 %15.0 °C3 km/hNNE18 km/h15.6 1017 hPa2.2 mm
16/09/2021 06:3815.5 °C99 %15.6 °C-ENE18 km/h15.6 1017 hPa2.2 mm
16/09/2021 06:3315.6 °C99 %15.6 °C10 km/hN18 km/h15.0 1017 hPa2.2 mm
16/09/2021 06:1815.7 °C99 %15.6 °C5 km/hN18 km/h15.6 1017 hPa2.2 mm
16/09/2021 06:0315.8 °C100 %16.1 °C3 km/hNNE18 km/h16.1 1017 hPa2.2 mm
16/09/2021 05:4715.9 °C99 %16.1 °C6 km/hN18 km/h16.1 1017 hPa2.2 mm
16/09/2021 05:3216.2 °C100 %16.1 °C3 km/hNE18 km/h16.1 1017 hPa2.2 mm
16/09/2021 05:1716.3 °C100 %16.1 °C2 km/hNNO18 km/h16.1 1017 hPa2.2 mm
16/09/2021 05:0116.5 °C100 %16.7 °C6 km/hNNO18 km/h16.7 1017 hPa2.2 mm
16/09/2021 04:4616.6 °C100 %16.7 °C2 km/hN18 km/h16.7 1017 hPa2.2 mm
16/09/2021 04:3016.7 °C100 %16.7 °C2 km/hN18 km/h16.7 1017 hPa2.2 mm
16/09/2021 04:1516.7 °C100 %16.7 °C2 km/hN18 km/h16.7 1017 hPa2 mm
16/09/2021 04:0016.7 °C100 %16.7 °C-N18 km/h16.7 1017 hPa1.8 mm
16/09/2021 03:4416.7 °C100 %16.7 °C-N18 km/h16.7 1017 hPa1.6 mm
16/09/2021 03:2916.7 °C99 %16.7 °C2 km/hN18 km/h16.7 1017 hPa1.6 mm
16/09/2021 03:1316.7 °C99 %16.7 °C3 km/hN18 km/h16.7 1017 hPa1.6 mm
16/09/2021 02:5816.8 °C99 %16.7 °C8 km/hNNE18 km/h16.7 1017 hPa1.4 mm
16/09/2021 02:4316.8 °C99 %16.7 °C2 km/hN18 km/h16.7 1017 hPa1.4 mm
16/09/2021 02:2716.9 °C99 %16.7 °C6 km/hNNE18 km/h17.2 1017 hPa0.8 mm
16/09/2021 02:1217.3 °C99 %17.2 °C11 km/hN16 km/h16.7 1017 hPa0.6 mm
16/09/2021 01:5517.6 °C100 %17.8 °C2 km/hNNO6 km/h17.8 1017 hPa0.2 mm
16/09/2021 01:4017.7 °C100 %17.8 °C-NO5 km/h17.8 1017 hPa0.2 mm
16/09/2021 01:2517.7 °C100 %17.8 °C-NO5 km/h17.8 1017 hPa0.2 mm
16/09/2021 01:1017.7 °C99 %17.8 °C-NO5 km/h17.8 1017 hPa0.2 mm
16/09/2021 00:5417.8 °C99 %17.8 °C-NO5 km/h17.8 1017 hPa0.2 mm
16/09/2021 00:3917.8 °C99 %17.8 °C-NO5 km/h17.8 1017 hPa0.2 mm
16/09/2021 00:2317.8 °C99 %17.8 °C-NO5 km/h17.8 1017 hPa0.2 mm
16/09/2021 00:0817.9 °C99 %17.8 °C-NO5 km/h17.8 1016 hPa0.2 mm


Minima :

Température : 14.9 °C
Humidité : 92 %
Point de rosée : 15.0 °C
Vent moyen : 2 km/h
Windchill : 15.0
Pression atm. : 1016 hPa
Maxima :

Température : 18.0 °C
Humidité : 100 %
Point de rosée : 17.8 °C
Vent moyen : 11 km/h
Windchill : 17.8
Pression atm. : 1019 hPa
Rafales max : 18 km/h
Cumul de pluie sur 24H : 2.6 mm

Tour-en-Sologne est une commune du département Loir-et-Cher (41).
La station météorologique du réseau de l'association la plus proche de Tour-en-Sologne est celle de Chailles



Icône Facebook Association Météo Centre Icône Twitter Association Météo Centre Icône Chaîne Youtube Association Météo Centre Icône contact Association Météo Centre Icône Insta Association Météo Centre